Bogalusa, LA

3:11 AM CST on December 15, 2017 (GMT -0600)
Carr Memorial

Weather History for KBXA - March, 2013

Change the Weather History Date:

Tuesday, March 12, 2013

  Actual Average Record
Temperature  
Mean Temperature 49 °F -  
Max Temperature 64 °F 71 °F 75 °F (2015)
Min Temperature 34 °F 48 °F 34 °F (2013)
Degree Days  
Heating Degree Days 16    
Moisture  
Dew Point 21 °F    
Average Humidity 51    
Maximum Humidity 95    
Minimum Humidity 4    
Precipitation  
Precipitation 0.00 in - - ()
Sea Level Pressure  
Sea Level Pressure 30.14 in    
Wind  
Wind Speed 3 mph (North)    
Max Wind Speed 13 mph    
Max Gust Speed 20 mph    
Visibility 10 miles    
Events      
Averages and records for this station are not official NWS values.
T = Trace of Precipitation, MM = Missing Value Source: NWS Daily Summary

Daily Weather History Graph

Daily Weather History Graph

Search for Another Location

Airport or City:

Trip Planner

Search our weather history database for the weather conditions in past years. The results will help you decide how hot, cold, wet, or windy it might be!

Date:

Astronomy

Mar. 12, 2013 Rise Set
Actual Time 7:12 AM CDT 7:05 PM CDT
Civil Twilight 6:48 AM CDT 7:29 PM CDT
Nautical Twilight 6:20 AM CDT 7:57 PM CDT
Astronomical Twilight 5:52 AM CDT 8:26 PM CDT
Moon 7:25 AM CDT (3/12) 8:12 PM CDT (3/12)
Length of Visible Light 12h 41m
Length of Day
11h 53m
New Moon, 1% of the Moon is Illuminated
Mar 12
New Moon
Mar 19
First Quarter
Mar 27
Full
Apr 2
Last Quarter
Apr 10
New

Hourly Weather History & Observations

Time (CDT) Temp. Windchill Dew Point Humidity Pressure Visibility Wind Dir Wind Speed Gust Speed Precip Events Conditions
12:15 AM 41.9 °F - 29.5 °F 61% 30.05 in 10.0 mi Calm Calm - N/A   Clear
12:35 AM 41.0 °F - 38.3 °F 90% 30.06 in 10.0 mi Calm Calm - N/A   Clear
1:15 AM 40.1 °F - 37.6 °F 91% 30.06 in 10.0 mi Calm Calm - N/A   Clear
1:35 AM 39.7 °F - 37.6 °F 92% 30.06 in 10.0 mi Calm Calm - N/A   Clear
1:55 AM 39.2 °F - 37.4 °F 93% 30.06 in 10.0 mi Calm Calm - N/A   Clear
2:15 AM 39.4 °F - 37.6 °F 93% 30.06 in 10.0 mi Calm Calm - N/A   Clear
2:35 AM 39.4 °F - 37.6 °F 93% 30.06 in 10.0 mi Calm Calm - N/A   Clear
2:55 AM 39.7 °F - 37.9 °F 93% 30.06 in 10.0 mi Calm Calm - N/A   Clear
3:15 AM 39.4 °F - 37.4 °F 93% 30.06 in 10.0 mi Calm Calm - N/A   Clear
3:35 AM 38.7 °F - 36.7 °F 93% 30.07 in 10.0 mi Calm Calm - N/A   Clear
3:55 AM 38.5 °F - 36.9 °F 94% 30.07 in 10.0 mi Calm Calm - N/A   Clear
4:15 AM 37.6 °F - 36.1 °F 95% 30.07 in 10.0 mi Calm Calm - N/A   Clear
4:35 AM 36.7 °F 34.1 °F 35.2 °F 95% 30.07 in 10.0 mi North 3.5 mph - N/A   Unknown
4:55 AM 36.7 °F - 35.2 °F 95% 30.08 in 10.0 mi Calm Calm - N/A   Unknown
5:15 AM 36.9 °F - 35.2 °F 94% 30.09 in 10.0 mi Calm Calm - N/A   Unknown
5:35 AM 37.0 °F - 35.2 °F 93% 30.09 in 10.0 mi Calm Calm - N/A   Unknown
5:55 AM 36.1 °F - 34.3 °F 93% 30.09 in 10.0 mi Calm Calm - N/A   Unknown
6:15 AM 36.1 °F - 34.7 °F 94% 30.10 in 10.0 mi Calm Calm - N/A   Unknown
6:35 AM 36.3 °F - 34.9 °F 95% 30.11 in 10.0 mi Calm Calm - N/A   Unknown
7:15 AM 34.9 °F - 33.4 °F 94% 30.12 in 7.0 mi Calm Calm - N/A   Unknown
7:35 AM 34.9 °F - 33.4 °F 94% 30.13 in 10.0 mi Calm Calm - N/A   Unknown
8:15 AM 37.9 °F - 36.5 °F 95% 30.15 in 10.0 mi Calm Calm - N/A   Unknown
8:35 AM 40.3 °F 38.2 °F 34.9 °F 81% 30.16 in 10.0 mi North 3.5 mph - N/A   Unknown
9:15 AM 45.1 °F 42.8 °F 28.9 °F 53% 30.18 in 10.0 mi NNE 4.6 mph - N/A   Unknown
9:35 AM 47.8 °F - 23.7 °F 39% 30.18 in 10.0 mi NE 4.6 mph - N/A   Unknown
9:55 AM 49.1 °F - 20.8 °F 33% 30.18 in 10.0 mi ENE 5.8 mph - N/A   Unknown
10:15 AM 50.4 °F - 19.2 °F 29% 30.19 in 10.0 mi ENE 8.1 mph - N/A   Unknown
10:35 AM 51.8 °F - 20.8 °F 30% 30.18 in 10.0 mi North 6.9 mph - N/A   Unknown
11:15 AM 54.1 °F - 20.7 °F 27% 30.19 in 10.0 mi North 11.5 mph 16.1 mph N/A   Unknown
11:35 AM 54.7 °F - 18.1 °F 24% 30.19 in 10.0 mi NNE 5.8 mph - N/A   Unknown
11:55 AM 56.7 °F - 17.8 °F 22% 30.19 in 10.0 mi North 11.5 mph - N/A   Unknown
12:15 PM 57.2 °F - 16.5 °F 20% 30.18 in 10.0 mi North 8.1 mph - N/A   Unknown
12:35 PM 58.5 °F - 13.1 °F 17% 30.18 in 10.0 mi North 9.2 mph 17.3 mph N/A   Unknown
12:55 PM 59.4 °F - 12.6 °F 16% 30.18 in 10.0 mi NNE 9.2 mph - N/A   Unknown
1:15 PM 60.6 °F - 9.7 °F 13% 30.17 in 10.0 mi North 8.1 mph - N/A   Unknown
1:35 PM 61.0 °F - -0.9 °F 8% 30.16 in 10.0 mi North 8.1 mph - N/A   Unknown
1:55 PM 61.9 °F - -0.6 °F 8% 30.15 in 10.0 mi NNW 9.2 mph - N/A   Unknown
2:15 PM 62.8 °F - 1.8 °F 9% 30.14 in 10.0 mi North 9.2 mph 16.1 mph N/A   Clear
2:35 PM 63.3 °F - -4.5 °F 6% 30.13 in 10.0 mi North 12.7 mph - N/A   Clear
2:55 PM 63.5 °F - -14.1 °F 4% 30.13 in 10.0 mi NW 6.9 mph 17.3 mph N/A   Clear
3:15 PM 64.2 °F - -10.5 °F 5% 30.13 in 10.0 mi North 12.7 mph 16.1 mph N/A   Clear
3:35 PM - - - N/A% 30.13 in 10.0 mi North 10.4 mph 19.6 mph N/A   Clear
3:55 PM 64.4 °F - -14.4 °F 4% 30.13 in 10.0 mi North 9.2 mph - N/A   Clear
4:15 PM 64.6 °F - -11.2 °F 4% 30.13 in 10.0 mi North 8.1 mph - N/A   Clear
4:35 PM 64.6 °F - -13.4 °F 4% 30.13 in 10.0 mi NNW 12.7 mph 17.3 mph N/A   Clear
4:55 PM 64.8 °F - -13.9 °F 4% 30.13 in 10.0 mi NNE 9.2 mph - N/A   Clear
5:15 PM 64.4 °F - -17.5 °F 4% 30.13 in 10.0 mi NNE 6.9 mph - N/A   Clear
5:35 PM 64.4 °F - -5.4 °F 6% 30.13 in 10.0 mi NNW 6.9 mph - N/A   Clear
5:55 PM 63.7 °F - -7.8 °F 5% 30.13 in 10.0 mi North 8.1 mph - N/A   Clear
6:15 PM 63.0 °F - -1.3 °F 8% 30.13 in 10.0 mi North 9.2 mph - N/A   Clear
6:35 PM 61.7 °F - 6.1 °F 11% 30.14 in 10.0 mi North 6.9 mph - N/A   Clear
6:55 PM 59.2 °F - 13.1 °F 16% 30.15 in 10.0 mi North 4.6 mph - N/A   Clear
7:15 PM 56.7 °F - 25.3 °F 30% 30.16 in 10.0 mi North 3.5 mph - N/A   Clear
7:35 PM 52.7 °F - 31.8 °F 45% 30.16 in 10.0 mi Calm Calm - N/A   Clear
7:55 PM 51.1 °F - 31.5 °F 47% 30.18 in 10.0 mi Calm Calm - N/A   Clear
8:15 PM 48.2 °F - 32.0 °F 54% 30.18 in 10.0 mi NNW 3.5 mph - N/A   Clear
8:35 PM 48.7 °F - 31.8 °F 52% 30.19 in 10.0 mi Calm Calm - N/A   Clear
9:15 PM 47.8 °F - 32.0 °F 54% 30.21 in 10.0 mi Calm Calm - N/A   Clear
9:35 PM 46.6 °F - 30.0 °F 53% 30.22 in 10.0 mi Calm Calm - N/A   Clear
9:55 PM 45.5 °F - 31.8 °F 59% 30.22 in 10.0 mi Calm Calm - N/A   Clear
10:35 PM 45.5 °F - 31.6 °F 58% 30.23 in 10.0 mi Calm Calm - N/A   Clear
10:55 PM 44.1 °F - 31.5 °F 61% 30.23 in 10.0 mi Calm Calm - N/A   Clear
11:15 PM 43.5 °F - 39.6 °F 86% 30.23 in 10.0 mi Calm Calm - N/A   Clear
11:35 PM 43.7 °F - 36.5 °F 76% 30.23 in 10.0 mi Calm Calm - N/A   Clear